2023/09/25 00:00:00,19.2,17.4
2023/09/25 00:10:00,19.2,17.3
2023/09/25 00:20:00,19.0,17.3
2023/09/25 00:30:00,19.2,17.3
2023/09/25 00:40:00,19.4,17.6
2023/09/25 00:50:00,19.5,17.4
2023/09/25 01:00:00,19.6,17.5
2023/09/25 01:10:00,19.4,17.7
2023/09/25 01:20:00,19.7,17.7
2023/09/25 01:30:00,19.3,17.7
2023/09/25 01:40:00,19.2,17.8
2023/09/25 01:50:00,19.2,17.8
2023/09/25 02:00:00,19.6,17.9
2023/09/25 02:10:00,19.7,18.0
2023/09/25 02:20:00,19.8,18.0
2023/09/25 02:30:00,19.5,18.0
2023/09/25 02:40:00,19.9,17.9
2023/09/25 02:50:00,20.0,18.1
2023/09/25 03:00:00,20.0,18.1
2023/09/25 03:10:00,20.1,17.8
2023/09/25 03:20:00,20.0,17.8
2023/09/25 03:30:00,20.1,17.6
2023/09/25 03:40:00,20.1,17.6
2023/09/25 03:50:00,20.3,17.6
2023/09/25 04:00:00,20.2,17.4
2023/09/25 04:10:00,20.2,17.3
2023/09/25 04:20:00,19.8,17.6
2023/09/25 04:30:00,19.9,17.7
2023/09/25 04:40:00,19.9,17.5
2023/09/25 04:50:00,19.7,17.4
2023/09/25 05:00:00,19.8,17.4
2023/09/25 05:10:00,19.7,17.2
2023/09/25 05:20:00,19.6,17.3
2023/09/25 05:30:00,19.6,17.1
2023/09/25 05:40:00,19.5,17.2
2023/09/25 05:50:00,19.6,17.2
2023/09/25 06:00:00,19.8,17.2
2023/09/25 06:10:00,19.6,17.3
2023/09/25 06:20:00,19.6,17.3
2023/09/25 06:30:00,19.8,17.8
2023/09/25 06:40:00,19.9,17.8
2023/09/25 06:50:00,20.0,18.0
2023/09/25 07:00:00,20.1,18.1
2023/09/25 07:10:00,20.3,18.4
2023/09/25 07:20:00,20.3,18.6
2023/09/25 07:30:00,20.1,19.2
2023/09/25 07:40:00,20.4,19.6
2023/09/25 07:50:00,20.4,19.7
2023/09/25 08:00:00,20.4,20.1
2023/09/25 08:10:00,20.6,20.8
2023/09/25 08:20:00,20.4,21.3
2023/09/25 08:30:00,20.4,22.2
2023/09/25 08:40:00,20.0,23.3
2023/09/25 08:50:00,20.1,23.1
2023/09/25 09:00:00,19.7,23.3
2023/09/25 09:10:00,19.7,23.3
2023/09/25 09:20:00,19.7,23.2
2023/09/25 09:30:00,20.1,23.1
2023/09/25 09:40:00,20.4,23.6
2023/09/25 09:50:00,20.5,24.5
2023/09/25 10:00:00,20.6,25.0
2023/09/25 10:10:00,20.4,25.3
2023/09/25 10:20:00,20.5,24.9
2023/09/25 10:30:00,20.6,25.1
2023/09/25 10:40:00,20.4,25.3
2023/09/25 10:50:00,20.6,25.3
2023/09/25 11:00:00,20.3,25.8
2023/09/25 11:10:00,19.9,28.3
2023/09/25 11:20:00,20.0,27.3
2023/09/25 11:30:00,19.1,26.5
2023/09/25 11:40:00,19.9,26.9
2023/09/25 11:50:00,---,27.6
2023/09/25 12:00:00,19.5,28.3
2023/09/25 12:10:00,19.4,28.5
2023/09/25 12:20:00,19.4,28.2
2023/09/25 12:30:00, 0.0,29.1
2023/09/25 12:40:00,---,29.5
2023/09/25 12:50:00,---,30.5
2023/09/25 13:00:00,18.5,30.1
2023/09/25 13:10:00, 6.6,29.1
2023/09/25 13:20:00, 6.0,28.6
2023/09/25 13:30:00, 9.5,28.1
2023/09/25 13:40:00,10.9,27.7
2023/09/25 13:50:00,11.0,27.1
2023/09/25 14:00:00,11.7,26.9
2023/09/25 14:10:00,11.2,26.8
2023/09/25 14:20:00, 8.6,27.3
2023/09/25 14:30:00, 8.3,27.7
2023/09/25 14:40:00, 2.3,29.3
2023/09/25 14:50:00, 0.0,29.8
2023/09/25 15:00:00, 6.4,28.2
2023/09/25 15:10:00, 6.4,26.1
2023/09/25 15:20:00, 0.3,26.3
2023/09/25 15:30:00, 1.5,27.7
2023/09/25 15:40:00, 8.7,27.5
2023/09/25 15:50:00, 5.2,26.3
2023/09/25 16:00:00, 4.6,26.0
2023/09/25 16:10:00,10.0,25.3
2023/09/25 16:20:00, 6.4,24.9
2023/09/25 16:30:00, 6.9,24.2
2023/09/25 16:40:00, 9.9,24.1
2023/09/25 16:50:00,18.6,23.8
2023/09/25 17:00:00,15.3,23.4
2023/09/25 17:10:00,17.5,23.6
2023/09/25 17:20:00,18.7,23.0
2023/09/25 17:30:00,19.0,22.6
2023/09/25 17:40:00,19.3,22.4
2023/09/25 17:50:00,14.9,21.5
2023/09/25 18:00:00,17.5,22.1
2023/09/25 18:10:00,15.8,21.6
2023/09/25 18:20:00,19.8,21.4
2023/09/25 18:30:00,19.6,21.5
2023/09/25 18:40:00,20.2,21.1
2023/09/25 18:50:00,20.4,21.2
2023/09/25 19:00:00,20.1,21.4
2023/09/25 19:10:00,20.1,21.1
2023/09/25 19:20:00,20.1,21.1
2023/09/25 19:30:00,20.2,21.0
2023/09/25 19:40:00,20.1,21.2
2023/09/25 19:50:00,20.2,20.8
2023/09/25 20:00:00,20.2,20.7
2023/09/25 20:10:00,20.2,20.5
2023/09/25 20:20:00,20.4,20.4
2023/09/25 20:30:00,20.4,20.5
2023/09/25 20:40:00,20.2,20.4
2023/09/25 20:50:00,20.4,20.3
2023/09/25 21:00:00,20.4,20.1
2023/09/25 21:10:00,20.4,20.1
2023/09/25 21:20:00,20.1,20.3
2023/09/25 21:30:00,20.6,20.1
2023/09/25 21:40:00,20.3,20.3
2023/09/25 21:50:00,20.5,20.3
2023/09/25 22:00:00,19.5,20.4
2023/09/25 22:10:00,18.0,20.5
2023/09/25 22:20:00,19.4,20.4
2023/09/25 22:30:00,19.0,20.4
2023/09/25 22:40:00,18.9,20.5
2023/09/25 22:50:00,17.8,20.4
2023/09/25 23:00:00,---,20.3
2023/09/25 23:10:00,17.7,20.3
2023/09/25 23:20:00,17.8,20.4
2023/09/25 23:30:00,16.8,20.4
2023/09/25 23:40:00,15.1,20.4
2023/09/25 23:50:00,12.7,20.4
